CW3094 Weather Reports


time (UTC)temp
C
wind
direction
speed
KPH
gust
KPH
rain 1hr
cm
rain 24hr
cm
rain mn
cm
humidity
%
barometer
mb
20260504150902 16 272 14.5 27.4 0.00 0.00 0.00 40 1010.4
20260504150402 16 261 14.5 32.2 0.00 0.00 0.00 41 1010.5
20260504140903 15 270 11.3 14.5 0.00 0.00 0.00 44 1010.9
20260504130405 13 299 11.3 24.1 0.00 0.00 0.00 48 1011.4
20260504110403 6 269 8.0 9.7 0.00 0.00 0.00 69 1011.9
20260504100402 5 262 8.0 11.3 0.00 0.00 0.00 75 1011.4
20260504081903 5 268 4.8 9.7 0.00 0.00 0.00 70 1010.9
20260504081403 5 273 4.8 11.3 0.00 0.00 0.00 70 1010.9
20260504080904 5 277 4.8 8.0 0.00 0.00 0.00 71 1010.9
20260504080403 5 275 4.8 8.0 0.00 0.00 0.00 70 1010.9
20260504070403 5 271 4.8 8.0 0.00 0.00 0.00 71 1010.8
20260504050404 5 287 3.2 3.2 0.00 0.00 0.00 68 1010.9
20260504045404 5 266 1.6 3.2 0.00 0.00 0.00 68 1010.9
20260504044903 5 265 1.6 3.2 0.00 0.00 0.00 67 1010.9
20260504044403 5 279 1.6 1.6 0.00 0.00 0.00 66 1010.9
20260504043903 5 291 1.6 3.2 0.00 0.00 0.00 66 1010.9
20260504042403 5 293 3.2 3.2 0.00 0.00 0.00 65 1010.8
20260504041903 5 295 1.6 3.2 0.00 0.00 0.00 66 1010.8
20260504041403 5 292 1.6 3.2 0.00 0.00 0.00 66 1010.9
20260504040903 5 286 1.6 3.2 0.00 0.00 0.00 67 1010.8
20260504040403 5 258 1.6 3.2 0.00 0.00 0.00 66 1010.7
20260504034406 6 310 3.2 8.0 0.00 0.00 0.00 64 1010.5
20260504033904 6 309 3.2 9.7 0.00 0.00 0.00 62 1010.5
20260504033404 6 306 3.2 4.8 0.00 0.00 0.00 60 1010.5
20260504032904 6 296 3.2 4.8 0.00 0.00 0.00 60 1010.5
20260504032403 6 296 3.2 3.2 0.00 0.00 0.00 59 1010.4
20260504031904 6 293 3.2 3.2 0.00 0.00 0.00 59 1010.4
20260504031403 6 288 3.2 3.2 0.00 0.00 0.00 58 1010.4
20260504030903 6 290 3.2 3.2 0.00 0.00 0.00 60 1010.3
20260504030404 6 294 3.2 4.8 0.00 0.00 0.00 57 1010.3
20260504025903 6 281 3.2 8.0 0.00 0.00 0.00 57 1010.2
20260504024904 6 299 1.6 3.2 0.00 0.00 0.00 58 1010.3
20260504024403 6 271 3.2 3.2 0.00 0.00 0.00 59 1010.4
20260504023903 6 287 3.2 3.2 0.00 0.00 0.00 57 1010.5
20260504023403 6 288 3.2 3.2 0.00 0.00 0.00 58 1010.4
20260504022903 6 286 3.2 4.8 0.00 0.00 0.00 58 1010.4
20260504022403 6 285 3.2 3.2 0.00 0.00 0.00 58 1010.4
20260504021403 6 274 3.2 3.2 0.00 0.00 0.00 58 1010.3
20260504020904 6 271 1.6 3.2 0.00 0.00 0.00 59 1010.2
20260504020403 6 262 1.6 3.2 0.00 0.00 0.00 59 1010.3
20260504015904 6 279 1.6 3.2 0.00 0.00 0.00 59 1010.3
20260504014904 6 288 1.6 3.2 0.00 0.00 0.00 57 1010.2
20260504014404 6 276 1.6 3.2 0.00 0.00 0.00 57 1010.2
20260504013903 6 269 3.2 3.2 0.00 0.00 0.00 57 1010.1
20260504013403 6 271 1.6 1.6 0.00 0.00 0.00 57 1010.0
20260504012903 7 274 1.6 3.2 0.00 0.00 0.00 55 1010.0
20260504011903 7 283 1.6 3.2 0.00 0.00 0.00 54 1009.9
20260504011403 7 279 1.6 3.2 0.00 0.00 0.00 53 1009.9
20260504010903 7 287 1.6 3.2 0.00 0.00 0.00 52 1009.8
20260504010403 7 289 1.6 3.2 0.00 0.00 0.00 52 1009.7
20260504005903 7 299 1.6 4.8 0.00 0.00 0.00 53 1009.6
20260504005403 7 277 3.2 4.8 0.00 0.00 0.00 49 1009.6
20260504004903 7 290 3.2 4.8 0.00 0.00 0.00 50 1009.6
20260504003904 7 265 3.2 4.8 0.00 0.00 0.00 52 1009.3
20260504002903 7 277 3.2 3.2 0.00 0.00 0.00 51 1009.2
20260504002404 7 296 1.6 1.6 0.00 0.00 0.00 50 1009.1
20260504001903 7 273 3.2 3.2 0.00 0.00 0.00 52 1009.0
20260504001404 8 279 4.8 8.0 0.00 0.00 0.00 50 1009.0
20260504000904 8 289 3.2 8.0 0.00 0.00 0.00 50 1008.9
20260504000404 8 281 4.8 8.0 0.00 0.00 0.00 49 1008.8
20260503235404 8 303 3.2 4.8 0.00 0.00 0.00 46 1008.7
20260503234903 9 289 3.2 8.0 0.00 0.00 0.00 46 1008.6
20260503234404 9 290 3.2 9.7 0.00 0.00 0.00 45 1008.6
20260503233903 9 315 3.2 11.3 0.00 0.00 0.00 44 1008.5
20260503233403 9 300 6.4 12.9 0.00 0.00 0.00 44 1008.5
20260503232903 10 315 8.0 14.5 0.00 0.00 0.00 43 1008.4
20260503231403 10 279 8.0 11.3 0.00 0.00 0.00 43 1008.4
20260503230904 10 287 8.0 14.5 0.00 0.00 0.00 43 1008.3
20260503230404 10 295 8.0 14.5 0.00 0.00 0.00 42 1008.3
20260503225404 10 284 6.4 11.3 0.00 0.00 0.00 44 1008.4
20260503224904 10 298 8.0 14.5 0.00 0.00 0.00 44 1008.3
20260503223904 11 296 4.8 14.5 0.00 0.00 0.00 42 1008.3
20260503222904 11 298 4.8 19.3 0.00 0.00 0.00 43 1008.3
20260503221903 11 295 8.0 12.9 0.00 0.00 0.00 43 1008.3
20260503221403 11 304 6.4 16.1 0.00 0.00 0.00 42 1008.3
20260503220404 11 313 9.7 16.1 0.00 0.00 0.00 42 1008.4
20260503215906 11 305 8.0 16.1 0.00 0.00 0.00 43 1008.4
20260503215403 11 294 8.0 16.1 0.00 0.00 0.00 42 1008.3
20260503214904 11 257 4.8 19.3 0.00 0.00 0.00 44 1008.4
20260503214404 11 294 12.9 19.3 0.00 0.00 0.00 44 1008.4
20260503213403 10 304 11.3 22.5 0.00 0.00 0.00 42 1008.2
20260503212403 11 301 12.9 24.1 0.00 0.00 0.00 45 1008.2
20260503211904 10 284 6.4 14.5 0.00 0.00 0.00 45 1008.3
20260503211404 10 287 11.3 19.3 0.00 0.00 0.00 45 1008.3
20260503210904 10 302 12.9 24.1 0.00 0.00 0.00 44 1008.4
20260503210404 10 350 6.4 24.1 0.00 0.00 0.00 45 1008.4
20260503205403 10 302 8.0 20.9 0.00 0.00 0.00 45 1008.3
20260503204904 11 300 6.4 16.1 0.00 0.00 0.00 45 1008.3
20260503204404 11 301 9.7 16.1 0.00 0.00 0.00 43 1008.3
20260503203904 11 305 9.7 27.4 0.00 0.00 0.00 44 1008.2
20260503202904 11 281 11.3 25.7 0.00 0.00 0.00 43 1008.3
20260503202404 11 288 14.5 27.4 0.00 0.00 0.00 44 1008.4
20260503201903 10 288 9.7 22.5 0.00 0.00 0.00 48 1008.4
20260503201404 10 282 17.7 33.8 0.00 0.00 0.00 44 1008.4
20260503200903 10 298 17.7 37.0 0.00 0.00 0.00 45 1008.4
20260503195903 10 314 19.3 27.4 0.00 0.00 0.00 43 1008.5
20260503195404 10 303 14.5 33.8 0.00 0.00 0.00 45 1008.5
20260503194904 10 295 16.1 37.0 0.00 0.00 0.00 44 1008.5
20260503194403 10 288 14.5 22.5 0.00 0.00 0.00 46 1008.5
20260503193404 10 286 14.5 32.2 0.00 0.00 0.00 45 1008.4
20260503191404 10 306 16.1 38.6 0.00 0.00 0.00 46 1008.5
20260503190904 10 291 11.3 33.8 0.00 0.00 0.00 48 1008.4
20260503190403 10 309 12.9 25.7 0.00 0.00 0.00 45 1008.5
20260503185903 10 303 12.9 40.2 0.00 0.00 0.00 46 1008.6
20260503184904 10 328 12.9 27.4 0.00 0.00 0.00 45 1008.5
20260503183904 10 278 17.7 33.8 0.00 0.00 0.00 47 1008.6
20260503182904 10 292 17.7 33.8 0.00 0.00 0.00 45 1008.7
20260503181904 10 309 11.3 20.9 0.00 0.00 0.00 46 1008.6
20260503181404 10 289 9.7 24.1 0.00 0.00 0.00 46 1008.6
20260503180903 10 308 11.3 25.7 0.00 0.00 0.00 45 1008.5
20260503180403 10 316 19.3 38.6 0.00 0.00 0.00 44 1008.5
20260503174404 10 301 19.3 29.0 0.00 0.00 0.00 44 1008.4
20260503173904 10 289 11.3 24.1 0.00 0.00 0.00 45 1008.4
20260503173404 10 320 16.1 29.0 0.00 0.00 0.00 46 1008.4
20260503172909 10 6 8.0 20.9 0.00 0.00 0.00 46 1008.4
20260503172403 10 301 9.7 20.9 0.00 0.00 0.00 46 1008.4
20260503171904 10 310 12.9 29.0 0.00 0.00 0.00 47 1008.4
20260503171404 10 304 9.7 14.5 0.00 0.00 0.00 48 1008.5
20260503170904 8 280 4.8 14.5 0.00 0.00 0.00 53 1008.5
20260503170404 8 336 14.5 29.0 0.00 0.00 0.00 50 1008.6